Sioux Falls, SD

5:29 AM CDT on October 18, 2017 (GMT -0500)
Foss

Weather History for KFSD - April, 2013

Change the Weather History Date:

Saturday, April 20, 2013

  Actual Average Record
Temperature  
Mean Temperature 28 °F 48 °F  
Max Temperature 39 °F 61 °F 93 °F (1980)
Min Temperature 16 °F 36 °F 16 °F (2013)
Degree Days  
Heating Degree Days 37 17  
Month to date heating degree days 597 417  
Since 1 July heating degree days 7369 7262  
Cooling Degree Days 0 0  
Month to date cooling degree days 0 0  
Year to date cooling degree days 0 0  
Moisture  
Dew Point 24 °F    
Average Humidity 69    
Maximum Humidity 89    
Minimum Humidity 48    
Precipitation  
Precipitation 0.03 in 0.10 in 1.26 in (1917)
Month to date precipitation 2.63 1.96  
Year to date precipitation 4.86 4.88  
Snow  
Snow 0.10 in 0.20 in 1.50 in (1893)
Month to date snowfall 10.2 3.7  
Since 1 July snowfall 37.2 43.6  
Snow Depth T in    
Sea Level Pressure  
Sea Level Pressure 30.21 in    
Wind  
Wind Speed 6 mph (SE)    
Max Wind Speed 16 mph    
Max Gust Speed 22 mph    
Visibility 7 miles    
Events Snow    
T = Trace of Precipitation, MM = Missing Value Source: NWS Daily Summary

Daily Weather History Graph

Daily Weather History Graph

Search for Another Location

Airport or City:

Trip Planner

Search our weather history database for the weather conditions in past years. The results will help you decide how hot, cold, wet, or windy it might be!

Date:

Astronomy

Apr. 20, 2013 Rise Set
Actual Time 6:35 AM CDT 8:16 PM CDT
Civil Twilight 6:05 AM CDT 8:47 PM CDT
Nautical Twilight 5:28 AM CDT 9:23 PM CDT
Astronomical Twilight 4:49 AM CDT 10:03 PM CDT
Moon 2:52 PM CDT (4/20) 3:35 AM CDT (4/20)
Length of Visible Light 14h 41m
Length of Day
13h 40m
Waxing Gibbous, 71% of the Moon is Illuminated
Apr 20
Waxing Gibbous
Apr 25
Full
May 2
Last Quarter
May 9
New
May 17
First Quarter

Hourly Weather History & Observations

Time (CDT) Temp. Windchill Dew Point Humidity Pressure Visibility Wind Dir Wind Speed Gust Speed Precip Events Conditions
12:56 AM 23.0 °F 15.8 °F 18.0 °F 81% 30.17 in 10.0 mi WNW 5.8 mph - N/A   Clear
1:56 AM 21.9 °F - 17.1 °F 82% 30.17 in 10.0 mi Calm Calm - N/A   Clear
2:56 AM 21.0 °F 13.4 °F 16.0 °F 81% 30.17 in 10.0 mi North 5.8 mph - N/A   Clear
3:56 AM 21.0 °F 16.2 °F 16.0 °F 81% 30.19 in 10.0 mi NW 3.5 mph - N/A   Clear
4:56 AM 19.0 °F - 14.0 °F 81% 30.20 in 10.0 mi Calm Calm - N/A   Clear
5:56 AM 19.0 °F - 14.0 °F 81% 30.22 in 10.0 mi Calm Calm - N/A   Clear
6:56 AM 18.0 °F - 14.0 °F 84% 30.24 in 10.0 mi Calm Calm - N/A   Clear
7:56 AM 24.1 °F - 17.1 °F 75% 30.26 in 10.0 mi Calm Calm - N/A   Clear
8:56 AM 28.0 °F 18.6 °F 19.9 °F 72% 30.25 in 10.0 mi ENE 10.4 mph - N/A   Clear
9:56 AM 30.0 °F 23.2 °F 19.0 °F 64% 30.27 in 10.0 mi East 6.9 mph - N/A   Clear
10:56 AM 32.0 °F 26.4 °F 18.0 °F 56% 30.28 in 10.0 mi East 5.8 mph - N/A   Clear
11:56 AM 34.0 °F 29.8 °F 18.0 °F 52% 30.28 in 10.0 mi Variable 4.6 mph - N/A   Clear
12:56 PM 36.0 °F 29.6 °F 19.9 °F 52% 30.27 in 10.0 mi South 8.1 mph - N/A   Overcast
1:56 PM 37.9 °F 30.9 °F 21.9 °F 53% 30.26 in 10.0 mi SSE 10.4 mph - N/A   Overcast
2:56 PM 37.0 °F 28.5 °F 19.9 °F 50% 30.25 in 10.0 mi SSE 13.8 mph - N/A   Overcast
3:56 PM 37.9 °F 31.5 °F 21.0 °F 51% 30.23 in 10.0 mi SSE 9.2 mph - N/A   Overcast
4:56 PM 37.0 °F 30.4 °F 23.0 °F 57% 30.22 in 9.0 mi SE 9.2 mph 21.9 mph 0.00 in Snow Light Snow
5:12 PM 35.6 °F 26.6 °F 24.8 °F 65% 30.16 in 2.5 mi SE 13.8 mph - 0.00 in Snow Light Snow
5:20 PM 35.6 °F 27.1 °F 26.6 °F 70% 30.16 in 2.5 mi SSE 12.7 mph 18.4 mph 0.00 in Snow Light Snow
5:34 PM 33.8 °F 24.3 °F 28.4 °F 81% 30.15 in 1.8 mi SE 13.8 mph 18.4 mph 0.00 in Snow Light Snow
5:49 PM 33.8 °F 25.8 °F 28.4 °F 81% 30.16 in 2.5 mi SSE 10.4 mph - 0.00 in Snow Light Snow
5:56 PM 34.0 °F 25.5 °F 28.0 °F 79% 30.23 in 2.5 mi SSE 11.5 mph - 0.00 in Snow Light Snow
6:01 PM 33.8 °F 25.8 °F 28.4 °F 81% 30.17 in 4.0 mi SSE 10.4 mph - 0.00 in Snow Light Snow
6:56 PM 34.0 °F 28.0 °F 28.9 °F 82% 30.23 in 10.0 mi SSE 6.9 mph - 0.00 in   Overcast
7:56 PM 34.0 °F 29.8 °F 30.0 °F 85% 30.22 in 10.0 mi East 4.6 mph - N/A   Mostly Cloudy
8:18 PM 33.8 °F 28.6 °F 30.2 °F 87% 30.17 in 4.0 mi East 5.8 mph - 0.00 in Snow Light Snow
8:40 PM 33.8 °F 27.0 °F 30.2 °F 87% 30.16 in 5.0 mi East 8.1 mph - 0.00 in Snow Light Snow
8:56 PM 34.0 °F 28.0 °F 30.9 °F 89% 30.23 in 8.0 mi ESE 6.9 mph - 0.00 in Snow Light Snow
9:21 PM 33.8 °F 26.4 °F 30.2 °F 87% 30.19 in 2.0 mi SE 9.2 mph - 0.00 in Snow Light Snow
9:33 PM 33.8 °F 27.7 °F 30.2 °F 87% 30.19 in 1.5 mi SE 6.9 mph - N/A Snow Light Snow
9:42 PM 33.8 °F 25.8 °F 30.2 °F 87% 30.19 in 1.2 mi SE 10.4 mph - 0.02 in Snow Light Snow
9:56 PM 33.1 °F 26.1 °F 30.9 °F 92% 30.24 in 1.5 mi SE 8.1 mph - 0.02 in Snow Light Snow
10:03 PM 33.8 °F 26.4 °F 30.2 °F 87% 30.19 in 2.0 mi SE 9.2 mph - 0.00 in Snow Light Snow
10:22 PM 33.8 °F 26.4 °F 32.0 °F 93% 30.18 in 3.0 mi SE 9.2 mph - 0.01 in Snow Light Snow
10:32 PM 33.8 °F 25.8 °F 32.0 °F 93% 30.18 in 3.0 mi SSE 10.4 mph - 0.01 in Snow Light Snow
10:47 PM 33.8 °F 26.4 °F 32.0 °F 93% 30.17 in 6.0 mi SE 9.2 mph - 0.01 in   Overcast
10:56 PM 34.0 °F 27.2 °F 32.0 °F 92% 30.22 in 10.0 mi ESE 8.1 mph - 0.01 in   Overcast
11:56 PM 35.1 °F 28.6 °F 30.9 °F 85% 30.18 in 10.0 mi SE 8.1 mph - N/A   Overcast